Flag Weather past 2 weeks in Galveston, Texas, U.S.A.

Now
56 °F

Clear.


Feels Like: 56 °F
Forecast: 53 / 60 °F
Wind: 3 mph from Southwest

Location: Scholes Field

Current Time: Nov 26, 2014 at 11:54:59 PM

Latest Report: Nov 26, 2014 at 10:52 PM


Visibility: 10 mi

Pressure: 30.32 "Hg

Humidity: 84%

Dew point: 51 °F

Location of GalvestonLocation

Historic Weather in Galveston — Graph

°F

Galveston temperature yesterday

Maximum temperature yesterday: 62 °F (at 2:52 PM)
Minimum temperature yesterday: 53 °F (at 7:52 PM)
Average temperature yesterday: 57 °F

Past Weeks' High & Low Weather Summary

 TemperatureHumidityPressure
High71 °F (Nov 20, 12:52 PM)100% (Nov 15, 4:52 PM)30.55 "Hg (Nov 15, 4:52 PM)
Low38 °F (Nov 18, 6:52 AM)27% (Nov 25, 3:52 PM)29.57 "Hg (Nov 23, 2:52 PM)
Average56 °F73%30.16 "Hg
* Reported Nov 11 9:52 PM — Nov 26 9:52 PM, Galveston, Weather by CustomWeather, © 2014

Note: Actual official high and low records may vary slightly from our data, if they occured in-between our weather recording intervals... More about our weather records

Advertising

Galveston weather history for previous 24 hours

 ConditionsComfort  
Time TempWeatherWind HumidityBarometerVisibility
9:52 PM
Nov 26
57 °FClear.6 mph78%30.30 "Hg10 mi
8:52 PM58 °FClear.7 mph70%30.29 "Hg10 mi
7:52 PM58 °FClear.7 mph70%30.28 "Hg10 mi
6:52 PM60 °FClear.9 mph62%30.26 "Hg10 mi
5:52 PM62 °FClear.12 mph50%30.24 "Hg10 mi
4:52 PM66 °FSunny.14 mph39%30.22 "Hg10 mi
3:52 PM68 °FSunny.21 mph39%30.20 "Hg10 mi
2:52 PM69 °FSunny.21 mph42%30.19 "Hg10 mi
1:52 PM71 °FSunny.16 mph41%30.19 "Hg10 mi
12:52 PM70 °FSunny.15 mph42%30.21 "Hg10 mi
11:52 AM68 °FSunny.20 mph45%30.23 "Hg10 mi
10:52 AM66 °FSunny.16 mph54%30.25 "Hg10 mi
9:52 AM64 °FSunny.13 mph61%30.26 "Hg10 mi
8:52 AM64 °FSunny.14 mph56%30.26 "Hg10 mi
7:52 AM59 °FSunny.8 mph78%30.24 "Hg10 mi
6:52 AM56 °FSunny.8 mph77%30.23 "Hg10 mi
5:52 AM56 °FClear.7 mph77%30.23 "Hg10 mi
4:52 AM56 °FClear.7 mph75%30.23 "Hg10 mi
3:52 AM57 °FClear.8 mph69%30.22 "Hg10 mi
2:52 AM56 °FClear.8 mph67%30.23 "Hg10 mi
1:52 AM55 °FClear.7 mph67%30.23 "Hg10 mi
12:52 AM55 °FClear.8 mph67%30.25 "Hg10 mi
11:52 PM
Nov 25
56 °FClear.8 mph65%30.25 "Hg10 mi
Weather by CustomWeather, © 2014

See weather overviewHow to use our weather pages